Theta_e
341 341 334 334 331 329 329 328 332 335 337 338 336 332 329 329 328 328 326 322 321 321 320 319 316 311 298 297 299 299 299 300 303 302 302 302 305 306
340 339 336 333 334 329 330 330 330 330 337 337 333 329 325 325 326 325 322 320 320 319 318 316 313 301 297 296 296 297 297 297 299 299 300 301 303 304
341 340 336 331 333 330 330 330 331 330 338 335 331 325 323 322 323 322 321 320 318 316 314 311 301 295 294 293 292 293 294 296 297 297 297 301 302 303
344 339 339 330 331 332 330 331 331 331 335 335 330 327 322 321 321 320 318 316 316 315 312 304 295 295 296 293 292 292 293 294 294 297 301 303 305 306
343 338 342 338 331 336 335 334 332 333 332 336 334 329 320 319 318 316 315 314 311 311 308 300 295 296 297 296 292 291 291 292 295 300 303 304 306 307
342 342 340 339 336 335 335 334 332 334 334 333 334 330 324 319 319 317 313 313 312 310 304 304 299 298 297 297 295 291 292 293 296 301 301 304 305 306
339 341 340 340 338 336 334 331 331 329 330 332 332 333 327 320 319 317 317 315 312 311 309 306 304 301 301 301 297 293 292 293 296 300 302 305 305 305
333 327 334 338 337 336 331 323 323 324 326 327 330 330 330 326 321 321 318 314 313 313 311 309 305 303 302 302 298 296 292 293 295 298 300 305 304 305
332 331 330 332 332 331 327 324 323 322 322 326 328 327 330 329 327 323 320 316 317 317 312 308 306 304 303 301 298 298 292 294 298 301 304 305 305 306
326 333 330 330 330 330 330 329 324 324 326 323 326 325 329 329 329 327 325 320 318 316 313 311 309 305 304 302 299 298 293 296 301 303 305 309 309 307
326 326 332 329 327 329 327 323 323 324 322 323 322 322 329 329 329 329 325 320 318 315 313 313 310 306 304 303 302 298 297 297 299 303 306 309 310 309
325 326 327 329 330 327 324 324 324 324 322 323 323 324 325 328 328 328 326 322 321 318 315 314 311 307 305 303 303 300 303 301 300 302 304 307 310 308
322 324 324 327 328 328 325 325 325 324 324 324 323 323 324 326 325 324 326 324 323 323 321 317 312 308 308 303 302 303 305 300 301 303 304 306 308 309
320 321 322 323 325 326 330 326 325 326 325 323 324 324 325 326 326 323 320 323 326 326 323 319 314 310 307 303 302 305 304 298 303 303 306 306 307 308
317 319 320 321 322 323 325 328 328 326 325 325 326 326 325 325 325 326 325 326 325 323 319 318 318 313 309 308 307 306 301 299 304 305 307 306 305 306
317 317 318 319 321 321 322 322 324 324 324 325 326 326 327 326 328 327 326 325 323 319 317 319 318 315 309 308 307 304 298 299 304 305 305 304 303 304
315 316 317 318 319 319 319 320 318 322 323 325 325 326 327 328 327 327 325 322 320 315 315 315 314 311 309 308 305 303 300 301 303 305 304 302 301 303
314 313 313 315 316 318 318 319 321 321 321 323 326 327 328 328 327 327 325 321 316 313 312 313 311 307 308 307 307 304 297 300 303 304 302 299 299 301
306 311 311 311 311 312 314 318 318 321 321 321 321 321 324 326 326 327 325 322 317 314 312 313 310 308 308 309 304 301 298 300 301 303 303 300 299 299
301 304 310 311 311 313 312 313 315 317 319 320 320 321 322 325 325 326 325 323 320 315 311 310 310 309 311 311 305 301 298 299 301 303 301 299 297 297
301 304 306 310 311 310 311 313 313 313 315 317 318 319 319 322 324 324 326 324 320 316 312 310 312 312 314 313 304 299 299 298 302 303 300 295 295 295
302 303 306 307 309 311 310 311 314 314 313 313 313 314 316 316 320 323 323 324 321 318 316 312 312 311 313 311 303 299 298 298 300 302 300 298 299 299
302 303 305 307 309 308 311 312 313 315 314 314 315 315 315 315 315 317 319 324 324 321 318 313 311 311 311 311 306 298 297 298 299 299 298 299 301 301
Wind_Speed
26 19 20 14 10 11 7 2 1 1 2 7 6 5 5 6 6 5 5 6 4 2 3 3 3 3 2 5 6 7 9 11 11 13 16 19 18 19
28 24 23 21 9 15 9 8 5 2 4 11 10 9 8 9 7 5 3 1 1 1 3 2 1 2 4 6 7 7 9 10 11 13 16 17 18 18
29 29 27 27 13 18 13 11 10 6 14 11 9 12 9 8 8 7 5 2 1 1 1 1 3 4 6 8 9 9 9 9 10 13 15 18 17 17
28 26 31 28 24 20 21 18 14 13 15 19 16 9 9 6 7 8 6 4 3 2 2 2 3 4 7 8 10 11 11 10 11 12 15 17 17 17
32 36 32 32 30 18 16 16 9 9 10 16 14 12 11 11 10 7 6 5 4 4 3 2 3 3 4 7 10 12 12 12 12 12 14 16 19 23
40 39 34 34 31 24 17 14 10 7 3 10 17 14 11 15 11 10 8 8 7 6 5 5 3 1 4 6 9 11 12 12 13 12 13 14 19 28
31 37 33 35 35 33 27 20 14 6 3 12 10 13 14 16 17 13 10 7 8 9 9 8 10 4 2 4 7 11 12 12 12 11 13 14 18 25
32 22 33 33 32 30 26 22 15 12 7 17 16 7 22 18 17 16 16 8 5 11 12 10 11 8 7 6 4 9 11 12 12 12 11 13 18 21
7 25 29 27 31 31 20 18 27 28 29 22 17 13 10 19 20 20 15 10 7 5 11 8 12 12 9 6 2 5 11 13 15 17 15 15 15 16
11 9 21 27 32 35 36 37 40 36 32 28 24 16 6 11 16 19 15 15 9 4 10 5 10 9 9 8 5 1 8 13 17 20 20 16 13 17
17 14 21 29 34 34 36 37 41 37 34 28 26 23 16 13 15 17 18 15 5 6 14 4 8 8 6 8 7 3 5 10 13 19 24 15 14 21
18 18 22 23 32 38 42 39 35 41 40 31 26 23 18 17 18 17 16 16 11 7 16 15 10 8 4 6 9 7 2 7 9 12 18 22 14 15
16 19 20 23 28 36 46 38 41 41 34 34 34 30 18 20 22 22 17 15 14 11 11 19 12 11 3 5 10 8 4 1 6 10 10 16 20 21
20 20 20 20 22 28 36 45 44 37 28 31 29 29 30 27 25 23 24 17 13 8 13 13 10 13 10 7 6 11 8 5 10 10 7 10 17 17
26 26 25 21 26 23 23 35 41 36 31 30 30 29 30 30 27 22 18 18 10 11 22 12 7 11 11 6 12 12 11 9 13 15 14 16 12 10
26 25 23 25 25 24 21 24 37 32 35 31 29 28 27 29 31 31 28 24 20 18 17 11 8 8 9 12 15 16 10 7 15 14 17 14 12 12
16 16 14 16 22 20 14 16 28 34 31 31 27 30 33 29 30 36 31 27 22 23 18 12 11 11 11 10 13 14 9 16 17 16 14 16 16 16
15 12 13 11 9 13 18 16 22 25 27 26 25 26 27 27 33 35 31 26 23 23 24 22 18 14 12 6 11 16 15 17 16 13 14 17 18 15
11 11 11 13 17 18 13 15 17 23 27 22 18 21 18 30 38 36 31 26 23 23 24 26 25 21 10 4 6 14 19 18 13 10 17 17 18 15
20 18 13 15 19 15 16 21 14 17 21 23 23 22 20 12 18 32 31 28 26 24 24 26 28 25 19 12 9 15 17 20 13 18 24 18 19 14
22 20 19 16 17 23 21 16 22 22 21 23 24 27 23 15 19 13 29 32 31 27 25 26 32 26 19 19 13 17 19 21 14 18 22 20 20 14
22 25 23 22 19 20 27 27 21 25 25 22 23 23 20 17 16 21 16 31 31 30 25 25 29 29 25 20 16 23 23 20 13 18 16 9 10 11
26 27 25 26 21 27 22 27 32 24 25 27 25 28 25 21 22 20 20 24 33 28 28 28 28 26 19 23 27 28 25 24 23 20 12 8 8 13
Wind_Direction
198 201 213 212 214 177 195 160 62 324 71 143 118 125 109 108 104 153 177 204 230 281 4 6 14 357 350 12 10 357 349 348 347 351 354 350 354 353
200 200 206 210 210 175 176 175 181 243 113 112 113 145 134 116 119 143 160 171 281 330 342 25 30 68 32 18 9 354 344 341 341 347 351 350 350 353
200 200 204 205 205 176 183 189 185 187 115 116 132 139 122 128 139 153 168 203 210 255 309 90 97 84 63 35 18 11 355 348 350 349 353 353 355 1
202 201 203 205 208 188 187 192 189 192 143 144 148 151 137 160 165 173 185 202 204 189 200 138 126 97 63 46 33 22 11 7 8 12 13 9 9 13
207 206 200 195 206 200 183 183 168 155 169 153 149 162 152 181 176 180 193 206 219 213 180 179 157 99 54 30 25 21 13 9 13 25 26 20 25 25
211 212 206 196 191 185 171 124 112 61 255 158 156 174 167 183 193 191 186 212 228 228 217 229 210 181 54 17 18 11 18 11 17 24 14 8 18 20
273 215 208 206 192 186 179 158 157 147 308 296 199 178 160 164 186 201 193 204 224 238 232 227 236 230 45 331 4 15 15 15 15 19 18 10 14 18
208 231 233 208 193 185 178 181 184 185 226 283 284 245 179 190 180 179 165 161 210 241 226 231 233 214 166 243 350 13 16 17 18 16 9 5 9 15
285 233 200 199 174 176 175 183 206 219 212 225 265 293 198 191 181 175 184 170 195 224 200 225 236 222 199 231 261 10 29 30 34 28 21 9 6 12
276 239 201 191 195 198 205 212 217 212 212 211 227 262 236 181 188 181 188 160 161 202 188 221 236 219 207 218 223 344 39 44 51 38 31 21 34 25
281 261 220 199 204 207 206 202 206 218 218 208 218 225 230 203 174 173 163 159 148 220 217 218 206 185 208 217 221 208 64 55 54 40 39 37 26 27
274 265 256 240 217 210 205 204 209 214 215 225 216 220 223 199 188 197 196 175 178 181 226 191 178 179 138 229 222 204 150 38 48 36 37 45 32 18
266 267 258 250 233 216 214 209 213 220 216 214 213 208 212 199 197 202 194 192 211 201 204 174 181 185 151 152 211 184 131 189 67 37 35 44 37 36
266 269 270 267 260 240 227 225 227 230 214 203 206 206 197 200 212 217 214 214 236 261 184 154 169 183 176 158 169 163 172 143 101 60 54 53 37 28
257 257 259 266 263 261 244 233 228 219 205 201 201 198 197 197 205 201 196 187 166 138 155 166 198 199 196 166 148 162 157 133 111 95 85 79 46 46
244 246 251 254 259 256 251 238 232 214 206 204 197 197 196 193 194 178 179 177 157 149 175 199 186 181 180 154 151 160 166 143 128 103 104 81 60 58
234 226 215 221 225 224 224 239 225 212 209 199 196 204 203 197 181 174 179 178 170 167 168 171 161 165 166 156 144 158 160 151 137 118 112 89 71 62
210 203 209 203 221 216 224 209 200 202 193 184 188 206 208 209 180 172 175 171 162 167 171 169 162 158 165 150 164 166 162 161 150 131 130 102 87 72
280 249 212 221 236 243 260 210 212 198 204 213 202 212 225 210 171 167 167 163 160 166 174 174 170 165 170 161 153 179 162 164 158 129 142 116 113 96
260 268 248 211 217 228 243 239 231 211 201 205 213 231 249 189 193 174 169 167 160 161 164 169 179 181 176 171 153 177 177 165 155 133 130 122 112 112
238 249 251 234 215 230 230 237 232 223 200 201 202 208 229 234 224 225 175 171 162 163 165 176 191 186 183 172 135 161 172 169 156 164 145 132 127 132
228 231 238 241 236 223 230 232 245 224 216 197 200 203 211 231 235 223 240 173 169 172 173 175 182 181 178 177 158 160 170 169 165 169 169 167 162 159
229 228 229 233 237 226 225 216 228 233 210 201 198 204 200 207 238 239 239 210 174 164 160 161 172 175 174 173 169 160 168 158 152 161 171 191 176 157